SCP
0 0 0 0 0 0 0 0 0 0 0 -0 -0 -0 0 0 0 0 0 0 0 0 0 0 0 0 0 0 0 0 0 0 0 0 -0 0 0 0 0 1 1 1 1 1
0 0 0 0 0 0 0 0 0 0 0 0 0 0 0 0 0 0 0 0 0 0 0 0 0 0 0 0 0 0 0 0 0 0 0 0 0 0 0 0 0 1 1 1
0 0 0 0 0 0 0 0 0 0 0 0 0 0 0 0 0 0 0 0 0 0 0 0 0 0 0 0 0 0 0 0 0 0 0 0 0 0 0 0 0 0 0 1
0 0 0 0 0 0 0 0 0 0 0 0 0 0 0 0 0 0 0 0 0 0 0 0 0 0 0 0 0 0 0 0 0 0 0 0 0 0 0 0 0 0 0 0
0 0 0 0 0 0 0 0 0 0 0 0 0 0 -0 0 0 0 0 0 0 0 0 0 0 0 0 0 0 0 0 0 0 0 0 0 0 0 0 0 0 0 0 0
0 0 0 0 0 0 0 0 0 0 0 0 0 0 0 0 0 0 0 0 0 0 0 0 0 0 0 0 0 0 0 0 0 0 0 0 1 1 0 1 0 0 0 0
0 0 0 0 0 0 0 0 0 0 0 0 0 0 0 0 0 0 0 0 0 0 0 0 0 0 0 0 0 0 0 0 0 0 0 0 1 1 1 1 0 0 0 0
0 0 0 0 0 0 0 0 0 0 0 0 0 0 0 0 0 0 0 0 0 0 0 0 0 0 0 0 0 0 0 0 0 0 0 0 1 1 0 0 0 0 0 0
0 0 0 0 0 0 0 0 0 0 0 0 0 0 0 0 0 0 0 0 0 0 0 0 0 0 0 0 0 0 0 0 0 0 0 0 1 1 1 1 0 0 0 0
0 0 0 0 0 0 0 0 0 0 0 0 0 0 0 0 0 0 0 0 0 0 0 0 0 0 0 0 0 0 0 0 0 0 0 0 0 1 1 1 0 0 0 0
0 0 0 0 0 0 0 0 0 0 0 0 0 0 0 0 0 0 0 0 0 0 0 0 0 0 0 0 0 0 0 0 0 0 0 0 0 0 1 2 1 0 0 0
0 0 0 0 0 0 0 0 0 0 0 0 0 0 0 0 0 0 0 0 0 0 0 0 0 0 0 0 0 0 0 0 0 0 0 0 0 0 0 0 0 0 0 0
0 0 0 0 0 0 0 0 0 0 0 0 0 0 0 0 0 0 0 0 0 0 0 0 0 0 0 0 0 0 0 0 0 0 0 0 0 0 0 0 0 0 0 0
0 0 0 0 0 0 0 0 0 0 0 0 0 0 0 0 0 0 0 0 0 0 0 0 0 0 0 0 0 0 0 0 0 0 0 0 0 0 0 0 0 0 0 0
0 0 0 0 0 0 0 0 0 0 0 0 0 0 0 0 0 0 0 0 -0 0 0 0 0 0 0 0 0 0 0 0 0 0 0 0 0 0 0 0 0 0 0 0
0 0 0 0 0 0 0 0 0 0 0 0 0 0 0 0 0 0 -0 -0 0 0 0 0 0 0 0 0 0 0 0 0 0 0 0 0 0 0 0 0 0 0 0 0
0 0 0 0 0 0 0 0 0 0 0 0 0 0 0 0 0 0 0 -0 0 0 0 0 0 0 0 0 0 0 0 0 0 0 0 0 0 0 0 0 0 0 0 0
0 0 0 0 0 0 0 0 0 0 0 0 0 0 0 0 0 0 0 0 0 0 0 0 0 0 0 0 0 0 0 0 0 0 0 0 0 0 0 0 0 0 0 0
0 0 0 0 0 0 0 0 0 0 0 0 0 0 0 0 0 0 0 0 0 0 0 0 0 0 0 0 0 0 0 0 0 0 0 0 0 0 0 0 0 0 0 0
0 0 0 0 0 0 0 0 0 0 0 0 0 0 0 0 0 -0 0 0 0 0 0 0 0 -0 -0 0 0 0 0 0 0 0 0 0 0 0 0 0 -0 -0 0 0
0 0 0 0 0 0 0 0 0 0 0 0 0 0 0 -0 -0 -0 -0 -0 -0 -0 -0 0 0 -0 -0 0 0 0 0 0 0 0 0 0 0 -0 -0 -0 -0 -0 0 0
0 0 0 0 0 0 0 0 0 0 0 0 0 0 0 -0 -0 -0 -0 -0 -0 -0 -0 -0 0 -0 0 0 0 0 -0 0 0 0 0 0 0 -0 -0 -0 -0 -0 0 0
0 0 0 0 0 0 0 0 0 0 0 0 0 0 0 0 0 0 0 0 0 -0 -0 0 -0 0 -0 0 0 0 -0 0 0 0 0 0 -0 -0 -0 -0 0 -0 0 0
0 0 0 0 0 0 0 0 0 0 0 0 0 -0 -0 -0 -0 0 0 0 0 0 -0 0 0 0 -0 -0 0 -0 0 0 0 0 -0 -0 -0 -0 -0 0 0 0 0 0
-0 0 0 -0 0 0 0 0 0 0 0 0 0 -0 0 0 0 0 -0 -0 -0 0 0 -0 -0 0 -0 0 0 0 -0 -0 -0 -0 -0 -0 -0 0 0 -0 -0 -0 0 0
-0 -0 -0 -0 0 0 0 0 0 0 0 0 -0 -0 0 0 -0 -0 -0 -0 -0 -0 -0 0 -0 -0 -0 -0 0 0 0 -0 -0 -0 -0 -0 -0 0 0 -0 0 -0 -0 -0
-0 -0 -0 0 0 0 -0 -0 0 0 0 0 0 -0 0 0 -0 -0 0 0 -0 0 -0 -0 -0 -0 -0 -0 0 -0 0 -0 0 -0 -0 -0 -0 0 0 0 0 0 0 -0
Wind_Speed_500mb
27 24 14 24 29 26 26 28 28 27 7 31 34 33 9 6 17 20 22 20 20 22 28 30 30 31 31 31 31 29 30 27 25 23 22 23 25 21 19 18 24 24 34 31
25 26 28 21 28 26 29 27 28 25 27 13 19 3 13 17 15 15 22 25 24 28 33 36 35 35 35 35 34 33 33 30 28 26 20 22 21 21 22 18 18 23 25 32
25 11 16 25 32 30 34 31 25 25 20 20 6 7 12 15 19 23 20 22 30 36 37 35 36 37 38 39 39 37 35 34 32 27 27 23 22 21 21 22 22 19 19 29
21 21 17 6 11 12 20 30 21 15 8 6 8 17 24 28 24 14 22 30 38 40 42 41 40 41 42 42 41 41 40 37 35 32 33 28 25 22 22 21 22 29 30 29
9 19 19 19 12 2 13 14 10 13 11 4 2 13 26 14 13 19 28 36 41 43 45 45 46 47 47 45 43 44 43 42 38 38 37 37 35 27 27 24 22 22 23 27
19 6 9 10 11 7 6 14 12 6 9 10 11 18 6 20 25 31 36 41 47 49 49 51 48 45 46 48 48 47 45 43 42 41 41 41 37 34 31 32 24 23 26 29
20 13 16 16 6 3 16 8 14 12 10 19 19 27 37 42 39 38 44 47 47 45 48 45 42 44 41 41 42 42 44 46 46 45 45 44 47 45 38 35 29 29 27 33
22 14 18 7 6 11 10 2 10 18 25 30 30 29 35 40 39 44 45 45 40 41 37 38 34 33 36 40 40 42 44 45 47 48 49 53 52 55 45 35 34 29 27 28
4 4 3 4 9 2 11 22 24 26 28 26 27 31 40 39 38 45 44 40 39 35 38 40 41 36 43 37 41 44 41 45 52 49 49 54 57 52 45 36 36 33 32 29
9 11 12 8 18 12 12 19 23 24 28 32 37 39 39 41 41 44 45 41 40 41 42 44 43 44 43 42 45 45 48 43 44 49 56 54 63 52 51 45 44 39 32 27
18 22 24 18 8 12 16 18 27 28 32 33 36 39 40 41 43 44 43 41 41 41 45 47 43 44 46 38 42 41 41 41 43 44 49 54 60 56 54 47 41 32 26 22
16 14 14 6 2 11 21 29 26 27 30 35 36 41 41 43 45 40 42 42 44 45 44 45 42 40 35 35 33 34 40 41 39 40 45 51 55 55 61 59 41 37 32 26
9 18 13 21 23 23 16 24 28 29 34 36 36 38 37 37 32 35 42 39 42 47 41 33 31 26 26 30 33 38 42 38 38 36 39 40 43 53 54 52 37 28 27 24
13 14 21 18 11 14 20 18 21 27 36 31 34 33 30 32 36 39 39 43 40 37 30 23 21 22 22 25 31 33 37 40 38 39 41 40 40 48 66 57 17 20 24 25
18 18 18 15 7 6 10 21 30 29 29 29 29 31 30 32 34 36 38 37 34 32 27 25 25 27 28 33 39 44 41 37 41 39 35 24 23 33 45 43 48 30 30 24
12 11 3 3 7 10 14 21 24 24 25 27 28 32 30 31 32 33 35 33 34 35 31 27 27 30 38 42 43 44 45 44 41 34 36 31 28 33 32 34 40 36 27 19
15 3 5 9 7 7 15 15 17 21 25 27 29 31 32 29 28 27 30 34 33 29 26 24 30 34 45 44 47 50 48 44 37 34 31 31 21 31 29 24 26 31 28 22
6 3 6 3 6 10 11 11 18 21 25 27 29 29 29 28 27 30 33 32 26 23 24 26 34 49 46 54 51 53 45 40 43 34 26 27 23 20 10 24 20 17 12 12
3 5 4 4 5 5 7 13 16 18 23 24 27 30 29 28 29 31 27 19 17 13 28 34 42 45 66 50 38 44 43 41 32 30 23 19 15 9 10 6 16 18 20 20
2 1 7 3 4 4 5 10 13 18 23 29 29 27 31 25 26 24 25 17 9 18 29 32 39 54 50 43 43 41 30 22 22 17 11 8 8 9 6 13 17 19 18 16
1 6 4 2 3 5 6 11 14 21 27 30 33 35 29 34 26 20 19 10 10 20 23 29 43 52 48 35 29 24 22 18 21 3 11 14 8 15 17 20 23 22 22 23
4 7 6 2 5 3 10 11 15 22 29 32 32 28 29 28 23 18 11 12 17 26 31 30 47 44 36 21 21 34 32 30 25 15 14 19 25 31 33 29 32 29 25 32
5 7 5 4 5 2 9 10 11 19 28 28 24 28 39 22 19 20 15 20 23 26 26 25 41 47 51 42 36 33 31 27 27 32 40 33 25 29 34 33 33 37 44 45
12 7 5 4 4 2 10 7 10 14 27 26 28 38 39 31 36 36 29 25 25 27 31 31 31 33 39 45 54 52 40 33 36 36 40 41 36 38 50 54 51 47 39 31
11 7 6 5 3 2 6 7 7 14 21 28 26 26 35 43 29 29 26 27 28 27 27 34 34 34 30 42 49 49 40 39 44 54 54 47 46 50 48 42 34 34 31 30
12 13 13 10 11 8 7 10 14 16 18 25 24 24 27 31 31 30 27 27 28 28 30 32 32 33 34 38 38 38 46 50 54 51 45 41 37 35 35 36 33 32 33 31
13 13 13 11 12 14 13 12 12 15 14 19 23 21 23 25 23 25 27 30 30 28 29 30 34 36 39 39 42 43 40 37 33 35 35 35 33 33 31 30 33 33 32 31
Wind_Direction_500mb
280 289 278 283 283 278 246 259 267 264 302 193 213 227 154 278 284 294 300 308 316 319 319 319 318 317 322 319 316 310 308 311 300 307 314 327 332 337 336 332 324 294 259 249
285 272 267 275 275 268 262 266 269 275 274 289 287 10 282 256 267 287 300 309 319 313 312 311 310 307 305 306 309 308 303 299 301 283 299 306 317 327 331 321 324 321 300 274
270 326 298 267 258 257 254 245 251 260 273 21 47 236 267 298 295 286 303 327 315 310 309 307 305 304 302 299 298 299 298 293 288 284 270 278 296 309 313 318 320 313 301 306
278 285 263 34 22 306 284 273 238 233 277 199 328 342 311 289 298 345 323 312 310 309 307 303 300 299 297 298 296 292 289 287 281 277 275 270 269 286 295 308 316 322 317 308
254 262 275 284 170 250 265 198 211 243 225 146 13 322 284 54 6 326 312 308 306 306 303 300 296 294 294 293 290 291 287 281 278 273 272 274 257 269 278 282 292 300 303 298
274 231 248 76 59 36 340 247 68 110 312 7 320 278 177 6 331 317 314 312 310 305 301 296 291 290 290 289 286 284 285 282 274 271 267 266 271 258 261 271 284 286 290 299
244 254 291 114 111 13 247 67 48 35 340 310 306 312 314 315 317 318 311 312 310 307 302 301 296 295 290 291 288 283 283 281 279 270 268 264 262 255 255 261 273 281 289 297
217 237 245 85 158 271 60 326 316 337 325 308 303 301 303 313 312 311 311 308 310 309 305 303 300 296 290 287 290 286 284 279 277 275 265 260 263 258 250 251 262 277 288 291
306 248 72 205 298 351 307 314 315 315 316 307 301 294 297 298 305 304 307 305 309 304 301 298 294 288 296 291 302 296 287 284 276 267 267 259 258 259 243 239 249 257 263 276
250 257 247 254 283 292 281 284 307 315 318 308 295 290 289 299 297 301 301 298 300 302 297 293 294 295 294 293 296 293 293 281 281 276 266 257 255 259 239 238 244 251 260 272
286 278 289 272 265 330 320 302 296 304 301 298 299 297 300 294 298 296 297 302 301 301 298 295 292 287 295 293 297 300 291 288 283 277 273 265 258 256 240 230 234 227 244 261
258 331 313 336 336 298 291 299 320 317 306 303 303 302 301 300 300 298 300 303 302 303 302 297 295 296 292 291 298 299 303 295 287 285 283 268 262 258 243 228 234 231 239 249
265 265 271 284 284 292 310 309 310 313 310 313 307 302 300 303 299 300 299 298 300 303 304 299 296 302 307 309 309 303 297 294 295 289 285 273 267 260 219 222 218 228 236 246
242 251 263 276 299 307 314 328 329 316 310 304 304 305 302 300 297 299 298 300 300 296 300 310 315 312 318 315 315 312 310 297 288 284 287 278 268 259 255 269 269 252 243 247
244 249 277 308 330 335 327 319 319 320 316 316 311 307 303 303 300 299 302 301 303 297 298 311 316 319 324 318 314 311 305 302 291 282 289 284 292 278 258 240 239 244 230 244
259 264 258 318 311 338 332 329 327 330 327 323 320 317 319 307 302 301 307 309 313 306 301 314 314 323 320 313 308 303 300 298 292 287 282 280 281 301 257 237 230 232 226 229
257 166 284 322 321 338 337 334 329 329 328 325 319 320 318 309 306 313 311 316 309 316 304 316 325 325 318 314 309 299 297 290 281 285 275 272 283 308 258 227 228 221 228 221
154 352 5 335 318 351 351 359 343 342 338 335 330 323 319 323 318 313 316 320 308 315 329 335 329 323 324 315 305 299 295 289 267 269 272 268 265 304 291 248 207 183 183 200
132 335 27 108 3 6 10 353 351 354 356 350 348 346 337 322 316 321 317 329 346 333 328 334 327 323 327 328 319 318 299 286 271 238 258 257 261 289 338 160 159 162 167 161
332 4 119 112 38 33 16 355 355 356 350 344 340 338 345 342 332 324 321 325 332 336 333 344 349 340 338 334 327 327 307 270 217 219 235 240 245 207 264 155 171 164 156 149
142 171 175 143 115 30 8 350 348 351 346 342 341 346 333 344 340 340 338 343 22 7 14 13 356 355 354 347 18 6 49 96 142 168 128 148 164 151 149 133 129 128 125 123
209 184 182 182 176 62 350 354 347 345 346 352 357 3 359 9 15 14 355 39 46 35 27 14 7 11 20 38 58 67 95 103 111 124 138 139 136 127 117 116 116 114 109 105
159 162 145 150 172 354 359 3 351 352 358 6 16 13 4 10 12 19 63 54 54 45 27 24 14 36 38 54 69 77 84 95 102 113 114 114 115 114 111 103 98 102 104 93
123 139 140 144 138 15 359 359 10 19 12 16 22 16 34 57 70 74 66 47 49 50 46 43 25 24 39 45 65 71 79 87 97 102 108 104 99 102 105 96 88 80 78 82
144 136 140 126 143 352 4 342 29 31 25 26 32 34 57 38 42 49 59 57 54 48 43 32 34 40 47 41 42 52 62 82 92 94 88 83 93 92 83 79 84 85 84 80
91 89 91 91 70 49 44 38 50 36 31 36 35 39 35 39 45 52 51 55 50 47 44 42 52 54 64 63 60 59 64 96 90 74 77 76 82 79 75 75 76 78 79 78
96 99 100 75 76 57 57 59 51 40 33 37 43 41 33 33 41 46 43 53 54 52 51 60 60 65 68 66 68 73 75 79 75 76 71 72 72 74 74 76 78 75 77 78
Wind_Speed_850mb
27 24 14 24 29 26 26 28 28 27 7 31 34 33 9 6 17 20 22 20 20 22 28 30 30 31 31 31 31 29 30 27 25 23 22 23 25 21 19 18 24 24 34 31
25 26 28 21 28 26 29 27 28 25 27 13 19 3 13 17 15 15 22 25 24 28 33 36 35 35 35 35 34 33 33 30 28 26 20 22 21 21 22 18 18 23 25 32
25 11 16 25 32 30 34 31 25 25 20 20 6 7 12 15 19 23 20 22 30 36 37 35 36 37 38 39 39 37 35 34 32 27 27 23 22 21 21 22 22 19 19 29
21 21 17 6 11 12 20 30 21 15 8 6 8 17 24 28 24 14 22 30 38 40 42 41 40 41 42 42 41 41 40 37 35 32 33 28 25 22 22 21 22 29 30 29
9 19 19 19 12 2 13 14 10 13 11 4 2 13 26 14 13 19 28 36 41 43 45 45 46 47 47 45 43 44 43 42 38 38 37 37 35 27 27 24 22 22 23 27
19 6 9 10 11 7 6 14 12 6 9 10 11 18 6 20 25 31 36 41 47 49 49 51 48 45 46 48 48 47 45 43 42 41 41 41 37 34 31 32 24 23 26 29
20 13 16 16 6 3 16 8 14 12 10 19 19 27 37 42 39 38 44 47 47 45 48 45 42 44 41 41 42 42 44 46 46 45 45 44 47 45 38 35 29 29 27 33
22 14 18 7 6 11 10 2 10 18 25 30 30 29 35 40 39 44 45 45 40 41 37 38 34 33 36 40 40 42 44 45 47 48 49 53 52 55 45 35 34 29 27 28
4 4 3 4 9 2 11 22 24 26 28 26 27 31 40 39 38 45 44 40 39 35 38 40 41 36 43 37 41 44 41 45 52 49 49 54 57 52 45 36 36 33 32 29
9 11 12 8 18 12 12 19 23 24 28 32 37 39 39 41 41 44 45 41 40 41 42 44 43 44 43 42 45 45 48 43 44 49 56 54 63 52 51 45 44 39 32 27
18 22 24 18 8 12 16 18 27 28 32 33 36 39 40 41 43 44 43 41 41 41 45 47 43 44 46 38 42 41 41 41 43 44 49 54 60 56 54 47 41 32 26 22
16 14 14 6 2 11 21 29 26 27 30 35 36 41 41 43 45 40 42 42 44 45 44 45 42 40 35 35 33 34 40 41 39 40 45 51 55 55 61 59 41 37 32 26
9 18 13 21 23 23 16 24 28 29 34 36 36 38 37 37 32 35 42 39 42 47 41 33 31 26 26 30 33 38 42 38 38 36 39 40 43 53 54 52 37 28 27 24
13 14 21 18 11 14 20 18 21 27 36 31 34 33 30 32 36 39 39 43 40 37 30 23 21 22 22 25 31 33 37 40 38 39 41 40 40 48 66 57 17 20 24 25
18 18 18 15 7 6 10 21 30 29 29 29 29 31 30 32 34 36 38 37 34 32 27 25 25 27 28 33 39 44 41 37 41 39 35 24 23 33 45 43 48 30 30 24
12 11 3 3 7 10 14 21 24 24 25 27 28 32 30 31 32 33 35 33 34 35 31 27 27 30 38 42 43 44 45 44 41 34 36 31 28 33 32 34 40 36 27 19
15 3 5 9 7 7 15 15 17 21 25 27 29 31 32 29 28 27 30 34 33 29 26 24 30 34 45 44 47 50 48 44 37 34 31 31 21 31 29 24 26 31 28 22
6 3 6 3 6 10 11 11 18 21 25 27 29 29 29 28 27 30 33 32 26 23 24 26 34 49 46 54 51 53 45 40 43 34 26 27 23 20 10 24 20 17 12 12
3 5 4 4 5 5 7 13 16 18 23 24 27 30 29 28 29 31 27 19 17 13 28 34 42 45 66 50 38 44 43 41 32 30 23 19 15 9 10 6 16 18 20 20
2 1 7 3 4 4 5 10 13 18 23 29 29 27 31 25 26 24 25 17 9 18 29 32 39 54 50 43 43 41 30 22 22 17 11 8 8 9 6 13 17 19 18 16
1 6 4 2 3 5 6 11 14 21 27 30 33 35 29 34 26 20 19 10 10 20 23 29 43 52 48 35 29 24 22 18 21 3 11 14 8 15 17 20 23 22 22 23
4 7 6 2 5 3 10 11 15 22 29 32 32 28 29 28 23 18 11 12 17 26 31 30 47 44 36 21 21 34 32 30 25 15 14 19 25 31 33 29 32 29 25 32
5 7 5 4 5 2 9 10 11 19 28 28 24 28 39 22 19 20 15 20 23 26 26 25 41 47 51 42 36 33 31 27 27 32 40 33 25 29 34 33 33 37 44 45
12 7 5 4 4 2 10 7 10 14 27 26 28 38 39 31 36 36 29 25 25 27 31 31 31 33 39 45 54 52 40 33 36 36 40 41 36 38 50 54 51 47 39 31
11 7 6 5 3 2 6 7 7 14 21 28 26 26 35 43 29 29 26 27 28 27 27 34 34 34 30 42 49 49 40 39 44 54 54 47 46 50 48 42 34 34 31 30
12 13 13 10 11 8 7 10 14 16 18 25 24 24 27 31 31 30 27 27 28 28 30 32 32 33 34 38 38 38 46 50 54 51 45 41 37 35 35 36 33 32 33 31
13 13 13 11 12 14 13 12 12 15 14 19 23 21 23 25 23 25 27 30 30 28 29 30 34 36 39 39 42 43 40 37 33 35 35 35 33 33 31 30 33 33 32 31
Wind_Direction_850mb
280 289 278 283 283 278 246 259 267 264 302 193 213 227 154 278 284 294 300 308 316 319 319 319 318 317 322 319 316 310 308 311 300 307 314 327 332 337 336 332 324 294 259 249
285 272 267 275 275 268 262 266 269 275 274 289 287 10 282 256 267 287 300 309 319 313 312 311 310 307 305 306 309 308 303 299 301 283 299 306 317 327 331 321 324 321 300 274
270 326 298 267 258 257 254 245 251 260 273 21 47 236 267 298 295 286 303 327 315 310 309 307 305 304 302 299 298 299 298 293 288 284 270 278 296 309 313 318 320 313 301 306
278 285 263 34 22 306 284 273 238 233 277 199 328 342 311 289 298 345 323 312 310 309 307 303 300 299 297 298 296 292 289 287 281 277 275 270 269 286 295 308 316 322 317 308
254 262 275 284 170 250 265 198 211 243 225 146 13 322 284 54 6 326 312 308 306 306 303 300 296 294 294 293 290 291 287 281 278 273 272 274 257 269 278 282 292 300 303 298
274 231 248 76 59 36 340 247 68 110 312 7 320 278 177 6 331 317 314 312 310 305 301 296 291 290 290 289 286 284 285 282 274 271 267 266 271 258 261 271 284 286 290 299
244 254 291 114 111 13 247 67 48 35 340 310 306 312 314 315 317 318 311 312 310 307 302 301 296 295 290 291 288 283 283 281 279 270 268 264 262 255 255 261 273 281 289 297
217 237 245 85 158 271 60 326 316 337 325 308 303 301 303 313 312 311 311 308 310 309 305 303 300 296 290 287 290 286 284 279 277 275 265 260 263 258 250 251 262 277 288 291
306 248 72 205 298 351 307 314 315 315 316 307 301 294 297 298 305 304 307 305 309 304 301 298 294 288 296 291 302 296 287 284 276 267 267 259 258 259 243 239 249 257 263 276
250 257 247 254 283 292 281 284 307 315 318 308 295 290 289 299 297 301 301 298 300 302 297 293 294 295 294 293 296 293 293 281 281 276 266 257 255 259 239 238 244 251 260 272
286 278 289 272 265 330 320 302 296 304 301 298 299 297 300 294 298 296 297 302 301 301 298 295 292 287 295 293 297 300 291 288 283 277 273 265 258 256 240 230 234 227 244 261
258 331 313 336 336 298 291 299 320 317 306 303 303 302 301 300 300 298 300 303 302 303 302 297 295 296 292 291 298 299 303 295 287 285 283 268 262 258 243 228 234 231 239 249
265 265 271 284 284 292 310 309 310 313 310 313 307 302 300 303 299 300 299 298 300 303 304 299 296 302 307 309 309 303 297 294 295 289 285 273 267 260 219 222 218 228 236 246
242 251 263 276 299 307 314 328 329 316 310 304 304 305 302 300 297 299 298 300 300 296 300 310 315 312 318 315 315 312 310 297 288 284 287 278 268 259 255 269 269 252 243 247
244 249 277 308 330 335 327 319 319 320 316 316 311 307 303 303 300 299 302 301 303 297 298 311 316 319 324 318 314 311 305 302 291 282 289 284 292 278 258 240 239 244 230 244
259 264 258 318 311 338 332 329 327 330 327 323 320 317 319 307 302 301 307 309 313 306 301 314 314 323 320 313 308 303 300 298 292 287 282 280 281 301 257 237 230 232 226 229
257 166 284 322 321 338 337 334 329 329 328 325 319 320 318 309 306 313 311 316 309 316 304 316 325 325 318 314 309 299 297 290 281 285 275 272 283 308 258 227 228 221 228 221
154 352 5 335 318 351 351 359 343 342 338 335 330 323 319 323 318 313 316 320 308 315 329 335 329 323 324 315 305 299 295 289 267 269 272 268 265 304 291 248 207 183 183 200
132 335 27 108 3 6 10 353 351 354 356 350 348 346 337 322 316 321 317 329 346 333 328 334 327 323 327 328 319 318 299 286 271 238 258 257 261 289 338 160 159 162 167 161
332 4 119 112 38 33 16 355 355 356 350 344 340 338 345 342 332 324 321 325 332 336 333 344 349 340 338 334 327 327 307 270 217 219 235 240 245 207 264 155 171 164 156 149
142 171 175 143 115 30 8 350 348 351 346 342 341 346 333 344 340 340 338 343 22 7 14 13 356 355 354 347 18 6 49 96 142 168 128 148 164 151 149 133 129 128 125 123
209 184 182 182 176 62 350 354 347 345 346 352 357 3 359 9 15 14 355 39 46 35 27 14 7 11 20 38 58 67 95 103 111 124 138 139 136 127 117 116 116 114 109 105
159 162 145 150 172 354 359 3 351 352 358 6 16 13 4 10 12 19 63 54 54 45 27 24 14 36 38 54 69 77 84 95 102 113 114 114 115 114 111 103 98 102 104 93
123 139 140 144 138 15 359 359 10 19 12 16 22 16 34 57 70 74 66 47 49 50 46 43 25 24 39 45 65 71 79 87 97 102 108 104 99 102 105 96 88 80 78 82
144 136 140 126 143 352 4 342 29 31 25 26 32 34 57 38 42 49 59 57 54 48 43 32 34 40 47 41 42 52 62 82 92 94 88 83 93 92 83 79 84 85 84 80
91 89 91 91 70 49 44 38 50 36 31 36 35 39 35 39 45 52 51 55 50 47 44 42 52 54 64 63 60 59 64 96 90 74 77 76 82 79 75 75 76 78 79 78
96 99 100 75 76 57 57 59 51 40 33 37 43 41 33 33 41 46 43 53 54 52 51 60 60 65 68 66 68 73 75 79 75 76 71 72 72 74 74 76 78 75 77 78